sat.trackr.live / text

‹ back to catalog

STARLINK-36737

NORAD 67740 · 2026-026V

PAYLOAD ACTIVE UNKNOWN

§ Identity

Operator
Country
US
Launch date
2026-02-11
Launch site
AFWTR
Launch vehicle
Mass (kg)
RCS (m²)

Purposes: comms

External: N2YO · Heavens-Above · Gunter

§ Orbital elements

Epoch: 2026-09-19T09:26:15.386496Z

Period
93.91 min
Inclination
97.2865°
Eccentricity
0.0000583
Mean motion
15.33446902 rev/d
Perigee alt
465.1 km
Apogee alt
465.9 km
Semi-major
6,843.7 km
B*
3.2748e-4
RAAN
314.2837°
Arg perigee
56.6610°
Mean anomaly
303.4689°
Rev number
3,381

§ Raw data

STARLINK-367371 67740U 26026V   26262.39323364  .00010512  00000+0  32748-3 0  99962 67740  97.2865 314.2837 0000583  56.6610 303.4689 15.33446902 33816

JSON: /api/v1/satellites/67740 · /tle

For live sub-satellite position, see the globe view (requires WebGL).

§ Visibility from observer

Set your observer location to see the next 7 days of passes ≥ 10°. The values pass through the URL so the page stays shareable.

No JS? Fill the form by hand. The geolocation button needs JavaScript.